Powrót do katalogu

STARLINK-5362

AktywnyŁącznośćVLEO
NORAD 55493·PAYLOAD·🇺🇸 United States

Wystrzelony Feb 2, 2023 z Cape Canaveral Space Force Station

Loading…

Następne Przeloty (najbliższe 24 godziny)

TLE

ŚwieżeSource: CelesTrak SupGP

Epoka: Sep 15, 2026, 01:43 UTC

1 55493C 23015AW  26258.07201389  .00002829  00000+0  10245-3 0  2583
2 55493  43.0024 350.0113 0001477 268.0522 357.6808 15.27577131    15

Śledź STARLINK-5362 w czasie rzeczywistym z AllMySat

Download on the App Store